Maxwell AFB, AL

6:25 PM CDT on July 26, 2017 (GMT -0500)
Maxwell Air Force Base

Weather History for KMXF - May, 2013

Change the Weather History Date:

Saturday, May 4, 2013

  Actual Average Record
Temperature  
Mean Temperature 54 °F -  
Max Temperature 63 °F 82 °F 101 °F (2014)
Min Temperature 46 °F 59 °F 44 °F (2004)
Degree Days  
Heating Degree Days 10    
Growing Degree Days 4 (Base 50)    
Moisture  
Dew Point 46 °F    
Average Humidity 87    
Maximum Humidity 100    
Minimum Humidity 45    
Precipitation  
Precipitation 1.35 in - - ()
Sea Level Pressure  
Sea Level Pressure 29.91 in    
Wind  
Wind Speed 8 mph (NW)    
Max Wind Speed 16 mph    
Max Gust Speed 30 mph    
Visibility 6 miles    
Events Rain , Thunderstorm    
Averages and records for this station are not official NWS values.
T = Trace of Precipitation, MM = Missing Value Source: NWS Daily Summary

Daily Weather History Graph

Daily Weather History Graph

Search for Another Location

Airport or City:

Trip Planner

Search our weather history database for the weather conditions in past years. The results will help you decide how hot, cold, wet, or windy it might be!

Date:

Astronomy

May. 04, 2013 Rise Set
Actual Time 5:55 AM CDT 7:28 PM CDT
Civil Twilight 5:29 AM CDT 7:55 PM CDT
Nautical Twilight 4:58 AM CDT 8:26 PM CDT
Astronomical Twilight 4:25 AM CDT 9:00 PM CDT
Moon 2:36 AM CDT (5/4) 2:42 PM CDT (5/4)
Length of Visible Light 14h 25m
Length of Day
13h 33m
Waning Crescent, 27% of the Moon is Illuminated
May 4
Waning Crescent
May 9
New
May 17
First Quarter
May 24
Full
May 31
Last Quarter

Hourly Weather History & Observations

Time (CDT) Temp. Windchill Dew Point Humidity Pressure Visibility Wind Dir Wind Speed Gust Speed Precip Events Conditions
12:27 AM 53.6 °F - 51.8 °F 94% 29.90 in 6.0 mi West 8.1 mph 29.9 mph N/A Rain , Thunderstorm Light Thunderstorms and Rain
12:37 AM 53.6 °F - 51.8 °F 94% 29.90 in 6.0 mi WSW 10.4 mph - N/A Rain , Thunderstorm Light Thunderstorms and Rain
12:50 AM 51.8 °F - 50.0 °F 94% 29.90 in 4.0 mi WSW 16.1 mph 18.4 mph N/A Rain Heavy Rain
12:58 AM 52.0 °F - 50.4 °F 94% 29.92 in 4.0 mi West 8.1 mph 20.7 mph 0.23 in Rain Heavy Rain
12:59 AM 51.8 °F - 50.0 °F 94% 29.90 in 3.0 mi West 8.1 mph 20.7 mph N/A Rain , Thunderstorm Heavy Thunderstorms and Rain
1:04 AM 51.8 °F - 50.0 °F 94% 29.90 in 2.5 mi West 10.4 mph 18.4 mph N/A Rain , Thunderstorm Heavy Thunderstorms and Rain
1:09 AM 50.0 °F - 48.2 °F 94% 29.90 in 2.5 mi WNW 11.5 mph - N/A Rain , Thunderstorm Thunderstorms and Rain
1:14 AM 50.0 °F - 48.2 °F 94% 29.90 in 3.0 mi WNW 9.2 mph - N/A Rain , Thunderstorm Thunderstorms and Rain
1:15 AM 50.0 °F - 48.2 °F 94% 29.90 in 3.0 mi West 10.4 mph - N/A Rain Rain
1:45 AM 48.2 °F - 46.4 °F 93% 29.91 in 2.5 mi WNW 10.4 mph - N/A Rain Heavy Rain
1:55 AM 48.2 °F - 46.4 °F 93% 29.90 in 3.0 mi NW 11.5 mph - N/A Rain Rain
1:58 AM 48.6 °F - 46.9 °F 94% 29.90 in 3.0 mi NNW 10.4 mph - 0.35 in Rain Rain
2:03 AM 48.2 °F - 46.4 °F 93% 29.89 in 4.0 mi NNW 6.9 mph - N/A Rain Light Rain
2:08 AM 48.2 °F - 46.4 °F 93% 29.89 in 6.0 mi NW 6.9 mph - N/A Rain Light Rain
2:48 AM 48.2 °F - 46.4 °F 93% 29.88 in 8.0 mi WNW 8.1 mph - N/A Rain Light Rain
2:58 AM 48.4 °F - 46.8 °F 94% 29.88 in 10.0 mi Variable 3.5 mph - 0.04 in   Light Drizzle
3:08 AM 48.2 °F - 46.4 °F 93% 29.88 in 7.0 mi West 4.6 mph - N/A Rain Light Rain
3:32 AM 48.2 °F - 46.4 °F 93% 29.89 in 10.0 mi West 6.9 mph - N/A   Overcast
3:35 AM 48.2 °F - 46.4 °F 93% 29.89 in 10.0 mi Variable 4.6 mph - N/A Rain Light Rain
3:58 AM 47.5 °F - 45.9 °F 94% 29.89 in 4.0 mi Variable 6.9 mph 21.9 mph 0.03 in Rain Light Rain
4:08 AM 48.2 °F - 46.4 °F 93% 29.89 in 5.0 mi Variable 5.8 mph - N/A Rain Light Rain
4:33 AM 46.4 °F 43.5 °F 44.6 °F 93% 29.89 in 5.0 mi Variable 5.8 mph - N/A Rain Light Rain
4:38 AM 46.4 °F 42.4 °F 44.6 °F 93% 29.88 in 5.0 mi WNW 8.1 mph - N/A Rain Light Rain
4:48 AM 46.4 °F 42.4 °F 44.6 °F 93% 29.88 in 4.0 mi WNW 8.1 mph - N/A Rain Light Rain
4:58 AM 46.4 °F 42.9 °F 44.6 °F 93% 29.90 in 4.0 mi WNW 6.9 mph - 0.08 in Rain Rain
5:13 AM 46.4 °F 42.9 °F 44.6 °F 93% 29.88 in 4.0 mi WNW 6.9 mph - N/A Rain Rain
5:28 AM 46.4 °F 42.4 °F 44.6 °F 93% 29.89 in 9.0 mi WNW 8.1 mph - N/A Rain Light Rain
5:58 AM 46.0 °F 41.4 °F 44.2 °F 93% 29.91 in 5.0 mi WNW 9.2 mph 20.7 mph 0.11 in Rain Light Rain
6:08 AM 46.4 °F 42.4 °F 44.6 °F 93% 29.91 in 5.0 mi NW 8.1 mph - N/A Rain Light Rain
6:13 AM 46.4 °F 41.9 °F 44.6 °F 93% 29.90 in 5.0 mi NW 9.2 mph - N/A Rain Light Rain
6:33 AM 46.4 °F 42.9 °F 44.6 °F 93% 29.91 in 2.5 mi NW 6.9 mph - N/A Rain Rain
6:48 AM 46.4 °F 42.4 °F 44.6 °F 93% 29.92 in 3.0 mi NW 8.1 mph - N/A Rain Light Rain
6:53 AM 46.4 °F 42.9 °F 44.6 °F 93% 29.92 in 4.0 mi NW 6.9 mph - N/A Rain Light Rain
6:58 AM 46.0 °F 43.1 °F 44.2 °F 93% 29.92 in 3.0 mi WNW 5.8 mph - 0.12 in Rain Light Rain
7:03 AM 46.4 °F 42.9 °F 44.6 °F 93% 29.92 in 2.5 mi WNW 6.9 mph - N/A Rain Light Rain
7:33 AM 46.4 °F 43.5 °F 44.6 °F 93% 29.92 in 4.0 mi NNW 5.8 mph - N/A Rain Light Rain
7:43 AM 46.4 °F 45.2 °F 44.6 °F 93% 29.92 in 4.0 mi Variable 3.5 mph - N/A Rain Light Rain
7:48 AM 46.4 °F 44.3 °F 44.6 °F 93% 29.91 in 3.0 mi NW 4.6 mph - N/A Rain Light Rain
7:53 AM 46.4 °F 45.2 °F 44.6 °F 93% 29.91 in 2.5 mi NNW 3.5 mph - N/A Rain Rain
7:58 AM 46.8 °F - 45.1 °F 94% 29.93 in 2.5 mi WNW 4.6 mph - 0.12 in Rain Light Rain
8:03 AM 46.4 °F 43.5 °F 44.6 °F 93% 29.92 in 3.0 mi WNW 5.8 mph - N/A Rain Light Rain
8:28 AM 46.4 °F 43.5 °F 46.4 °F 100% 29.93 in 3.0 mi WNW 5.8 mph - N/A Rain Light Rain
8:33 AM 46.4 °F 41.5 °F 46.4 °F 100% 29.92 in 2.5 mi NW 10.4 mph - N/A Rain Light Rain
8:48 AM 46.4 °F 42.4 °F 44.6 °F 93% 29.92 in 1.8 mi NW 8.1 mph - N/A Rain Heavy Rain
8:58 AM 46.9 °F - 45.3 °F 94% 29.93 in 2.5 mi WNW 8.1 mph - 0.12 in Rain Light Rain
9:03 AM 46.4 °F 42.9 °F 44.6 °F 93% 29.92 in 5.0 mi WNW 6.9 mph - N/A Rain Light Rain
9:08 AM 46.4 °F 41.5 °F 44.6 °F 93% 29.93 in 7.0 mi WNW 10.4 mph - N/A Rain Light Rain
9:23 AM 46.4 °F 43.5 °F 44.6 °F 93% 29.94 in 2.0 mi WNW 5.8 mph - N/A Rain Rain
9:33 AM 46.4 °F 41.9 °F 44.6 °F 93% 29.94 in 3.0 mi WNW 9.2 mph - N/A Rain Rain
9:38 AM 46.4 °F 42.4 °F 44.6 °F 93% 29.94 in 2.5 mi WNW 8.1 mph - N/A Rain Rain
9:43 AM 48.2 °F - 44.6 °F 87% 29.93 in 3.0 mi NW 9.2 mph - N/A Rain Light Rain
9:58 AM 47.7 °F - 45.5 °F 92% 29.96 in 9.0 mi NW 6.9 mph - 0.13 in Rain Light Rain
10:23 AM 48.2 °F - 46.4 °F 93% 29.95 in 10.0 mi NW 8.1 mph - N/A Rain Light Rain
10:42 AM 50.0 °F - 46.4 °F 87% 29.95 in 10.0 mi NW 12.7 mph 19.6 mph N/A   Overcast
10:58 AM 51.8 °F - 44.2 °F 75% 29.96 in 10.0 mi NNW 11.5 mph 21.9 mph 0.02 in   Overcast
11:18 AM 55.4 °F - 44.6 °F 67% 29.94 in 10.0 mi NNW 10.4 mph 20.7 mph N/A   Overcast
11:58 AM 57.2 °F - 44.4 °F 62% 29.94 in 10.0 mi NNW 12.7 mph 23.0 mph N/A   Overcast
12:58 PM 60.1 °F - 41.9 °F 51% 29.94 in 10.0 mi NNW 16.1 mph 21.9 mph N/A   Overcast
1:58 PM 61.7 °F - 42.6 °F 50% 29.92 in 10.0 mi NW 9.2 mph - N/A   Scattered Clouds
2:09 PM 62.6 °F - 41.0 °F 45% 29.90 in 10.0 mi North 13.8 mph 20.7 mph N/A   Clear
2:58 PM 63.0 °F - 44.6 °F 51% 29.91 in 10.0 mi NNW 10.4 mph - N/A   Clear
3:58 PM 63.5 °F - 44.1 °F 49% 29.90 in 10.0 mi NNE 10.4 mph - N/A   Clear
4:58 PM 63.1 °F - 44.1 °F 50% 29.89 in 10.0 mi NNE 8.1 mph - N/A   Clear
5:58 PM 62.2 °F - 45.9 °F 55% 29.89 in 10.0 mi NNE 8.1 mph - N/A   Clear
6:58 PM 59.5 °F - 46.2 °F 61% 29.90 in 10.0 mi NE 5.8 mph - N/A   Clear
7:58 PM 55.2 °F - 46.8 °F 73% 29.91 in 10.0 mi NNE 4.6 mph - N/A   Clear
8:58 PM 52.9 °F - 46.6 °F 79% 29.93 in 10.0 mi North 4.6 mph - N/A   Clear
9:58 PM 50.2 °F - 46.2 °F 86% 29.94 in 10.0 mi NNW 4.6 mph - N/A   Clear
10:58 PM 49.1 °F - 45.1 °F 86% 29.93 in 10.0 mi NNW 3.5 mph - N/A   Clear
11:58 PM 48.4 °F - 44.1 °F 85% 29.92 in 10.0 mi Calm Calm - N/A   Clear